Location: Newark
(30.2328°N, 54.2869°E)
Time: 07:34:32
(UTC+00:00)

Hubble Space Telescope - Pass Details

Date: 28 July 2019
Orbit: 536 x 540 km, 28.5° (Epoch: 18 August)

Event Time Altitude Azimuth Distance (km) Brightness Sun altitude
Exits shadow 00:34:42 20° 221° (SW) 1,271 2.1 -13.1°
Maximum altitude 00:37:03 38° 164° (SSE) 826 1.6 -12.7°
Drops below altitude 10° 00:40:54 10° 96° (E) 1,784 4.3 -12.0°
Sets 00:43:15 0° 88° (E) 2,675 5.5 -11.5°
